Location: Pinon Ridge Observatory
(38.3507°N, 107.9359°W)
Time: 20:36:41
(UTC-06:00)

Tiangong 2 - Visible Passes

Search period start: 25 May 2018 00:00
Search period end: 04 June 2018 00:00
Orbit: 382 x 385 km, 42.8° (Epoch: 25 May)

Date Brightness Start Highest point End Pass type
(mag) Time Alt. Az. Time Alt. Az. Time Alt. Az.
25 May 2.5 21:51:25 10° WNW 21:54:22 37° N 21:57:20 10° ENE visible
25 May 3.8 23:28:27 10° WNW 23:29:34 19° NW 23:29:34 19° NW visible
26 May 2.5 22:28:36 10° WNW 22:31:32 35° N 22:32:27 28° NE visible
27 May 2.6 21:28:40 10° WNW 21:31:35 34° N 21:34:30 10° ENE visible
27 May 2.8 23:05:32 10° WNW 23:07:27 32° NW 23:07:27 32° NW visible
28 May 2.1 22:05:43 10° WNW 22:08:44 41° N 22:10:13 24° ENE visible
29 May 2.5 21:05:50 10° WNW 21:08:46 35° N 21:11:42 10° ENE visible
29 May 1.6 22:42:34 10° WNW 22:45:08 55° WNW 22:45:08 55° WNW visible
30 May 1.5 21:42:45 10° WNW 21:45:51 55° NNE 21:47:51 19° E visible
30 May 4.0 23:19:40 10° W 23:20:02 12° W 23:20:02 12° W visible
31 May 1.2 22:19:38 10° WNW 22:22:43 55° SSW 22:22:46 55° SSW visible
01 Jun 1.0 21:19:44 10° WNW 21:22:54 85° NNE 21:25:31 14° ESE visible
01 Jun 3.8 22:57:12 10° WSW 22:57:42 12° WSW 22:57:42 12° WSW visible
02 Jun 2.2 21:56:48 10° W 21:59:37 30° SSW 22:00:29 26° S visible
03 Jun 1.4 20:56:46 10° WNW 20:59:51 56° SSW 21:02:56 10° SE visible
